USA 119

导读

USA 119是美国于1996年5月12日发射的军事卫星,隶属于美国国家 Reconnaissance Office(NRO),一般认为属于“锁眼”KH-12系列光学侦察卫星,用于高分辨率成像侦察任务。它部署在近地轨道,具备较强的空间分辨率,可对全球目标进行光学成像侦察,为美国军方提供战略情报支持,是美国空间侦察体系的重要组成部分,至今仍在轨执行机密任务,具体细节美国并未公开披露。

基本信息
目录编号:
23893
目录名称:
USA 119
国际标识:
1996-029A
轨道中心:
EARTH
卫星名称:
USA 119
卫星全名:
--
卫星状态:
在轨 (已飞行11020 天)
发射日期:
1996-05-12 UTC
国别 :
美国 (US)
星等 :
--
轨道信息
数据来源 国际轨道数据 AOE轨道数据
星历时间 2026-07-14T04:27:49+0800
9小时前
查看轨道信息
2026-07-12T00:00:00+0800
2天前
查看轨道信息
半长轴 7463.907km 7463.922km
偏心率 0.0852625 0.0852559
轨道倾角 63.319° 63.318°
近地点辐角 49.588° 49.544°
升交点赤经 122.311° 128.032°
平近点角 317.642° 162.639°
近地点 449.378km 449.441km
远地点 1722.162km 1722.129km
周期 106.957分钟 106.957分钟
每日圈数 13.463361 13.46332
详细信息
使用方式:
暂无
2D轨道图
3D轨道图
轨道高度分析图
轨道倾角分析图
轨道综合分析图
查看轨道综合分析图